Regional Weather Roundup
Issued by NWS

Home | Current Version | Previous Version | Graphics & Text | Print | Product List | Glossary On
Versions: 1 2 3 4 5 6 7 8 9 10 11 12 13 14 15 16 17 18 19 20 21 22 23 24 25 26 27 28 29 30 31 32 33 34 35 36 37 38 39 40 41 42 43 44 45 46 47 48 49 50
000
ASUS43 KIND 011459
RWRIN

WEATHER ROUNDUP FOR INDIANA
NATIONAL WEATHER SERVICE INDIANAPOLIS IN
1100 AM EDT SUN MAY 01 2016

NOTE: "FAIR" INDICATES FEW OR NO CLOUDS BELOW 12,000 FEET WITH NO
SIGNIFICANT WEATHER AND/OR OBSTRUCTIONS TO VISIBILITY.

* - STATION DOES NOT REPORT WEATHER SUCH AS PRECIPITATION OR FOG.

+ - STATION NOT QUALITY CONTROLLED BY THE NATIONAL WEATHER SERVICE.
    USE DATA WITH CAUTION...ESPECIALLY DEWPOINT AND RELATIVE
    HUMIDITY OBSERVATIONS.

INZ001>003-010>013-019-020-011600-
NORTHWEST INDIANA

CITY           SKY/WX    TMP DP  RH WIND       PRES   REMARKS
RENSSELAER +   CLOUDY    50  50 100 N8        29.96R FOG

$$

LMZ046-743>745-011600-
SOUTHERN LAKE MICHIGAN

STATION/POSITION TIME  TEMP    WIND        PRES    WAVE
                       AIR SEA DIR/SP/G            HT
                 (UTC) (F)     (DEG/KT/KT) (MB)    (FT)
BURNS HARBOR     1414   44      20/ 16/ 17 1015.6R
MICHIGAN CITY    1400   45      10/ 14/ 15   N/A

$$

INZ004-005-014>016-021>024-011600-
NORTH CENTRAL INDIANA

CITY           SKY/WX    TMP DP  RH WIND       PRES   REMARKS
ELKHART        CLOUDY    50  50 100 MISG      29.97S FOG
GOSHEN         CLOUDY    51  49  92 NE8       29.96R FOG
SOUTH BEND     CLOUDY    51  49  92 NE8       29.97R FOG

$$

INZ006>009-017-018-025>027-011600-
NORTHEAST INDIANA

CITY           SKY/WX    TMP DP  RH WIND       PRES   REMARKS
ANGOLA *+      CLOUDY    50  41  71 N5        29.95S
FORT WAYNE     FOG       54  52  93 E6        29.96R VSB 1/2

$$

INZ028-029-035-036-043>045-051>053-011600-
WEST CENTRAL INDIANA

CITY           SKY/WX    TMP DP  RH WIND       PRES   REMARKS
CRAWFORDSVL +  SUNNY     61  60  94 W5        29.94S
GREENCASTLE +  MOSUNNY   66  59  77 N5        29.94R
LAFAYETTE      CLOUDY    57  55  93 CALM      29.94R FOG
TERRE HAUTE    SUNNY     68  56  65 CALM      29.93R

$$

INZ030>032-037>040-046>048-054>057-064-065-011600-
CENTRAL INDIANA

CITY           SKY/WX    TMP DP  RH WIND       PRES   REMARKS
COLUMBUS       MOSUNNY   66  63  88 SW3       29.94R
INDIANAPOLIS   MOSUNNY   70  56  61 VRB3      29.92R
-EAGLE CREEK   MOSUNNY   68  57  68 VRB3      29.93R
KOKOMO *+      CLOUDY    57  55  94 CALM      29.93S
SHELBYVILLE    MOSUNNY   68  60  75 CALM      29.92S

$$

INZ033-034-041-042-049-050-058-059-011600-
EAST CENTRAL INDIANA

CITY           SKY/WX    TMP DP  RH WIND       PRES   REMARKS
MUNCIE         MOSUNNY   70  58  65 VRB3      29.93S

$$

INZ060-061-067>069-081>083-085>088-011600-
SOUTHWEST INDIANA

CITY           SKY/WX    TMP DP  RH WIND       PRES   REMARKS
EVANSVILLE     SUNNY     72  59  63 SW8       29.92S
HUNTINGBURG *+ SUNNY     70  63  78 SW5       29.92S

$$

INZ062-063-066-070>080-084-089>092-011600-
SOUTH CENTRAL AND SOUTHEAST INDIANA

CITY           SKY/WX    TMP DP  RH WIND       PRES   REMARKS
BLOOMINGTON    SUNNY     71  57  61 N5        29.93S
MADISON *+     PTSUNNY   66  63  88 S6        29.96R
SEYMOUR +      CLOUDY    68  64  88 SW5       29.94R

$$





USA.gov is the U.S. government's official web portal to all federal, state and local government web resources and services.